Regional Weather Roundup
Issued by NWS Grand Forks, ND

Home | Current Version | Previous Version | Graphics & Text | Print | Product List | Glossary On
Versions: 1 2 3 4 5 6 7 8 9 10 11 12 13 14 15 16 17 18 19 20 21 22 23 24 25 26 27 28 29 30 31 32 33 34 35 36 37 38 39 40 41 42 43 44 45 46 47 48 49 50
000
ASUS43 KFGF 241831
RWRFGF
PRAIRIE TO PINES  WEATHER ROUNDUP
NATIONAL WEATHER SERVICE EASTERN NORTH DAKOTA/GRAND FORKS ND
100 PM CDT THU JUL 24 2014

 **SATELLITE DATA USED TO AUGMENT SKY COVER AT AUTOMATED STATIONS**
 *****  WEATHER ACROSS EASTERN NORTH DAKOTA  *****

CITY           SKY/WX    TMP DP  RH WIND       PRES   REMARKS
GRAND FORKS    LGT RAIN  72  62  71 SE18G24   29.86F
6HR MIN TEMP:  59; 6HR MAX TEMP:  72; 6HR PCP: TRACE;

GRAND FRKS AFB CLOUDY    69  65  85 SE16      29.89F
GRAND FRKS NWS   N/A     73 N/A N/A SE23        N/A
DEVILS LAKE    CLOUDY    72  59  64 S28G35    29.83S
6HR MIN TEMP:  63; 6HR MAX TEMP:  72; 6HR PCP:  0.19;

FARGO          CLOUDY    69  58  67 SE13G21   29.93F
WAHPETON ARPT  CLOUDY    64  57  77 S5        30.12F
$$

 ***** WEATHER ACROSS CENTRAL AND WESTERN NORTH DAKOTA  *****

CITY           SKY/WX    TMP DP  RH WIND       PRES   REMARKS
BISMARCK       CLOUDY    76  61  59 SE24G31   29.86F
6HR MIN TEMP:  64; 6HR MAX TEMP:  77; 6HR PCP:  0.01;

MINOT          SUNNY     79  62  56 SE22G32   29.81F
6HR MIN TEMP:  63; 6HR MAX TEMP:  79; 6HR PCP:  0.27;

JAMESTOWN      CLOUDY    67  61  81 SE13      29.91F
6HR MIN TEMP:  62; 6HR MAX TEMP:  68; 6HR PCP:  0.11;

MINOT AFB      SUNNY     78  66  66 S16       29.81F
GARRISON         N/A     75  64  68 SE20G29   29.83F
WILLISTON      SUNNY     80  62  54 SE17      29.76F
6HR MIN TEMP:  64; 6HR MAX TEMP:  81;

DICKINSON      CLOUDY    71  62  73 SE20      29.81F
6HR MIN TEMP:  62; 6HR MAX TEMP:  71; 6HR PCP:  0.09;

HETTINGER      SUNNY     78  64  61 SE15      29.80F
6HR MIN TEMP:  65; 6HR MAX TEMP:  79; 6HR PCP:  0.01;

$$

 *****  OTHER AIRPORT OBSERVATIONS IN OUR AREA  *****

CITY           SKY/WX    TMP DP  RH WIND       PRES   REMARKS
WALHALLA         N/A     68  66  94 SE8         N/A
GRAFTON AIRPOR FAIR      72  63  73 SE17G26   29.85S
VALLEY CITY AR FAIR      66  64  94 SE12      29.92F
CANDO          FAIR      73  64  73 S10       29.89F
CAVALIER APRT  FAIR      68  63  83 SE6       29.90R
GWINNER          N/A     64  63  94 SE33G43   29.81F
SHEYENNE NWR     N/A     64  61  89 S17       29.95
ROLLA          FAIR      66  64  94 S12G21    29.91R
 ***** THE ABOVE OBSERVATIONS ARE NON NWS ARE NOT QUALITY
       CONTROLLED AND MAY MIS-REPORT RAIN FOR SNOW...
$$

  *****  WEATHER ACROSS NORTHERN MINNESOTA  *****

CITY           SKY/WX    TMP DP  RH WIND       PRES   REMARKS
FLAG ISLAND    MOSUNNY   70  57  64 SE9       29.99F
WARROAD        MOSUNNY   73  61  64 W5        30.02F
ROSEAU         PTSUNNY   75  63  64 S5        29.99F
HALLOCK        CLOUDY    72  61  68 E21G26    29.83F
THF RVR FALLS  CLOUDY    72  61  68 S12       29.98F
6HR MIN TEMP:  55; 6HR MAX TEMP:  73;

BAUDETTE       MOSUNNY   75  56  51 VRB7      30.06F
6HR MIN TEMP:  55; 6HR MAX TEMP:  75;

WASKISH        MOSUNNY   75  63  64 CALM      30.06S
CROOKSTON      CLOUDY    72  63  73 SE20      29.87F
$$
  *****  WEATHER ACROSS CENTRAL AND WEST MINNESOTA  *****

CITY           SKY/WX    TMP DP  RH WIND       PRES   REMARKS
FOSSTON        CLOUDY    72  59  64 S9        30.04F
BEMIDJI        CLOUDY    73  56  57 SW7       30.07F
PARK RAPIDS    CLOUDY    75  56  51 SW9       30.09R
6HR MIN TEMP:  56; 6HR MAX TEMP:  75;

ELBOW LAKE     CLOUDY    70  58  65 W8        30.14R
WADENA         PTSUNNY   73  55  53 S3        30.08R
DETROIT LAKES  CLOUDY    72  55  56 SW7       30.10F
MOORHEAD       LGT RAIN  68  63  83 SE14G26   29.94F
FERGUS FALLS   CLOUDY    70  57  64 W3        30.13R
MORRIS MN      PTSUNNY   72  59  64 SE5       30.01R
STAPLES        PTSUNNY   73  52  46 SE6       30.06F
$$
  *****  WEATHER ELSEWHERE ACROSS MINNESOTA  *****

CITY           SKY/WX    TMP DP  RH WIND       PRES   REMARKS
DULUTH         PTSUNNY   74  55  51 W8        30.08F
6HR MIN TEMP:  59; 6HR MAX TEMP:  75;

INTRNTL FALLS  PTSUNNY   73  53  49 S8        30.05F
6HR MIN TEMP:  52; 6HR MAX TEMP:  74;

ELY            PTSUNNY   72  52  49 SW6       30.07F
CLOQUET        MOSUNNY   73  52  46 S8        30.08F
WHEATON        TSTM      64  61  88 N10G21    30.15R
BRAINERD       PTSUNNY   74  52  46 S7        30.08F
6HR MIN TEMP:  54; 6HR MAX TEMP:  75;

HIBBING        PTSUNNY   74  52  46 CALM      30.07F
6HR MIN TEMP:  50; 6HR MAX TEMP:  75;

ALEXANDRIA     PTSUNNY   75  53  46 SE12G18   30.06F
6HR MIN TEMP:  61; 6HR MAX TEMP:  76;

SAINT CLOUD    MOSUNNY   81  51  35 SE10      30.06F
6HR MIN TEMP:  56; 6HR MAX TEMP:  82;

MINNEAPOLIS    PTSUNNY   80  54  40 S8        30.07F
6HR MIN TEMP:  65; 6HR MAX TEMP:  81;

$$

  *****  WEATHER ACROSS SOUTH DAKOTA  *****

CITY           SKY/WX    TMP DP  RH WIND       PRES   REMARKS
SIOUX FALLS    CLOUDY    67  62  84 SE17G26   29.98F
6HR MIN TEMP:  65; 6HR MAX TEMP:  70; 6HR PCP:  0.19;

BROOKINGS      NOT AVBL
WATERTOWN      PTSUNNY   68  62  81 SE20G29   29.94F
6HR MIN TEMP:  62; 6HR MAX TEMP:  74;

HURON          CLOUDY    76  65  68 SE21G33   29.86F
6HR MIN TEMP:  62; 6HR MAX TEMP:  76; 6HR PCP: TRACE;

SISSETON         N/A     64  63  96 E12G31    30.10R
ABERDEEN       CLOUDY    69  61  75 E12G22    29.99R
6HR MIN TEMP:  62; 6HR MAX TEMP:  72;

MITCHELL       CLOUDY    81  65  58 SE22G33   29.90F
PIERRE         PTSUNNY   87  65  47 SE28      29.77F
6HR MIN TEMP:  68; 6HR MAX TEMP:  87;

MOBRIDGE       PTSUNNY   80  65  59 SE22G28   29.81F
RAPID CITY     CLOUDY    82  69  64 E6        29.81S
6HR MIN TEMP:  66; 6HR MAX TEMP:  83;

$$

  *****  SOME WEATHER IN NEARBY STATES *****

CITY           SKY/WX    TMP DP  RH WIND       PRES   REMARKS
GLASGOW MT     MOSUNNY   87  58  37 SE14      29.73F
6HR MIN TEMP:  64; 6HR MAX TEMP:  87;

GREAT FALLS MT PTSUNNY   74  48  39 SW16G24   29.90F
6HR MIN TEMP:  59; 6HR MAX TEMP:  76;

CHEYENNE WY    MOSUNNY   88  46  23 W26G41    30.16S
6HR MIN TEMP:  64; 6HR MAX TEMP:  90;

SCOTTSBLUFF NE MOSUNNY   94  57  28 SW7       29.95F HX  92
6HR MIN TEMP:  66; 6HR MAX TEMP:  94;

OMAHA NE       PTSUNNY   79  60  52 S22G29    30.04F
6HR MIN TEMP:  67; 6HR MAX TEMP:  80; 6HR PCP: TRACE;

DES MOINES IA  CLOUDY    80  59  48 SE17      30.10F
6HR MIN TEMP:  64; 6HR MAX TEMP:  80;

DAVENPORT IA   MOSUNNY   75  53  46 CALM      30.17F
6HR MIN TEMP:  57; 6HR MAX TEMP:  75;

CHICAGO IL     MOSUNNY   73  46  38 NE9       30.17S
6HR MIN TEMP:  59; 6HR MAX TEMP:  73;

EAU CLAIRE WI  PTSUNNY   78  50  37 MISG      30.10F
6HR MIN TEMP:  58; 6HR MAX TEMP:  80;

LA CROSSE WI   SUNNY     80  52  37 SE7       30.11F
$$

  *****  SOME NATIONAL WEATHER *****

CITY           SKY/WX    TMP DP  RH WIND       PRES   REMARKS
LA GUARDIA NY  CLOUDY    76  59  55 N10       29.86S
6HR MIN TEMP:  73; 6HR MAX TEMP:  77;

RALEIGH NC     PTSUNNY   85  71  63 VRB3      29.89F HX  90
6HR MIN TEMP:  75; 6HR MAX TEMP:  86; 6HR PCP:  0.07;

ATLANTA GA     TSTM      79  72  78 W15G22    29.98R
6HR MIN TEMP:  73; 6HR MAX TEMP:  86;

NEW ORLEANS LA PTSUNNY   85  74  69 NE8       29.99F HX  92
6HR MIN TEMP:  76; 6HR MAX TEMP:  88;

OKLAHOMA CITY  MOSUNNY   89  71  55 SE10      30.08F HX  95
6HR MIN TEMP:  74; 6HR MAX TEMP:  89;

ALBUQUERQUE NM MOSUNNY   85  47  26 VRB5      30.30F
6HR MIN TEMP:  69; 6HR MAX TEMP:  85;

SALT LAKE CITY MOSUNNY   88  44  21 NW14      30.04S
6HR MIN TEMP:  78; 6HR MAX TEMP:  89;

LOS ANGELES CA MOSUNNY   80  62  54 W8        29.85S
6HR MIN TEMP:  67; 6HR MAX TEMP:  80;

BOISE ID       SUNNY     67  34  29 NW9G17    30.22S
6HR MIN TEMP:  58; 6HR MAX TEMP:  67;




USA.gov is the U.S. government's official web portal to all federal, state and local government web resources and services.